Location: Marshall
(39.8477°N, 87.1868°W)
Time: 04:50:23
(UTC+00:00)

Hubble Space Telescope - Visible Passes

Search period start: 20 May 2026 00:00
Search period end: 30 May 2026 00:00
Orbit: 473 x 476 km, 28.5° (Epoch: 19 May)

Date Brightness Start Highest point End Pass type
(mag) Time Alt. Az. Time Alt. Az. Time Alt. Az.
25 May 2.9 09:36:21 10° S 09:36:51 10° SSE 09:37:20 10° SSE visible
26 May 2.9 09:04:53 10° S 09:05:16 10° SSE 09:05:39 10° SSE visible
28 May 2.5 09:39:00 10° SSW 09:41:05 14° S 09:43:12 10° SE visible
29 May 2.4 09:08:58 14° S 09:09:30 14° S 09:11:36 10° SE visible
